Flag for Switzerland Weather past 2 weeks in Thalwil, Zurich, Switzerland

Now
44 °F

Quite cool.


Feels Like: 41 °F
Forecast: 32 / 62 °F
Wind: 6 mph from West

Location: Zurich Town / Ville.

Current Time: Apr 28, 2015 at 4:36:02 PM

Latest Report: Apr 28, 2015 at 4:00 PM


Visibility: N/A

Pressure: 30.14 "Hg

Humidity: 79%

Dew point: 38 °F

Location of ThalwilLocation

Historic Weather in Thalwil — Graph

°F

Thalwil temperature yesterday

Maximum temperature yesterday: 68 °F (at 6:00 PM)
Minimum temperature yesterday: 51 °F (at 6:00 AM)
Average temperature yesterday: 59 °F

Past Weeks' High & Low Weather Summary

 TemperatureHumidityPressure
High72 °F (Apr 15, 5:00 PM)97% (Apr 28, 3:00 AM)30.47 "Hg (Apr 28, 3:00 AM)
Low36 °F (Apr 19, 7:00 AM)19% (Apr 22, 7:00 PM)29.41 "Hg (Apr 27, 6:00 PM)
Average55 °F58%30.05 "Hg
* Reported Apr 13 3:00 PM — Apr 28 3:00 PM, Thalwil, Weather by CustomWeather, © 2015

Note: Actual official high and low records may vary slightly from our data, if they occured in-between our weather recording intervals... More about our weather records

Advertising

Thalwil weather history for previous 24 hours

 ConditionsComfort  
Time TempWeatherWind HumidityBarometerVisibility
3:00 PM
Tue, Apr 28
44 °FQuite cool.5 mph89%30.14 "HgN/A
2:00 PM44 °FOvercast.6 mph89%30.11 "HgN/A
1:00 PM43 °FQuite cool.5 mph92%30.09 "HgN/A
12:00 PM43 °FQuite cool.7 mph92%30.06 "HgN/A
11:00 AM43 °FQuite cool.9 mph93%30.03 "HgN/A
10:00 AM43 °FQuite cool.8 mph93%29.99 "HgN/A
9:00 AM44 °FQuite cool.9 mph91%29.96 "HgN/A
8:00 AM44 °FQuite cool.9 mph95%29.92 "HgN/A
7:00 AM44 °FQuite cool.9 mph94%29.88 "HgN/A
6:00 AM45 °FCool.10 mph95%29.83 "HgN/A
4:00 AM47 °FCool.10 mph96%29.73 "HgN/A
3:00 AM50 °FCool.7 mph97%29.67 "HgN/A
2:00 AM52 °FCool.2 mph94%29.65 "HgN/A
1:00 AM53 °FCool.7 mph91%29.63 "HgN/A
12:00 AM53 °FCool.3 mph95%29.61 "HgN/A
11:00 PM
Mon, Apr 27
56 °FCool.2 mph76%29.57 "HgN/A
10:00 PM58 °FCool.5 mph68%29.55 "HgN/A
9:00 PM59 °FCool.8 mph65%29.50 "HgN/A
8:00 PM64 °FMild.7 mph60%29.44 "HgN/A
7:00 PM66 °FMild.2 mph51%29.44 "HgN/A
6:00 PM68 °FMild.3 mph42%29.41 "HgN/A
5:00 PM68 °FMild.5 mph51%29.44 "HgN/A
4:00 PM67 °FMild.5 mph58%29.44 "HgN/A
Weather by CustomWeather, © 2015

See weather overviewHow to use our weather pages